SCP
0 -0 0 -0 -0 -0 -0 -0 -0 -0 -0 -0 -0 -0 -0 -0 -0 0 0 0 -0 0 0 0 0 -0 -0 -0 -0 0 0 0 0 0 0 -0 -0 -0 -0 -0 -0 -0 -0
-0 -0 -0 -0 -0 -1 -1 -0 -0 -0 -0 -0 0 0 0 0 0 0 0 0 -0 0 0 0 0 0 0 0 -0 0 0 -0 0 0 0 0 -0 -0 -0 -0 -0 -0 -0
-0 -0 -0 -0 -0 -0 -1 -0 -0 -0 -0 -0 0 0 0 0 0 0 0 0 0 0 0 0 0 0 0 0 0 0 0 -0 0 0 0 0 0 0 -0 0 -0 -0 -0
-0 -0 -1 -0 -0 -0 -0 -0 -0 -0 -0 -0 -0 -0 0 0 0 0 0 0 0 0 0 0 0 0 0 0 0 0 0 -0 0 0 0 0 0 -0 0 0 0 0 0
-0 -0 -1 -1 -0 -0 -0 -0 -0 -0 -0 -0 -0 -0 -0 0 0 0 0 0 0 0 0 0 -0 0 0 0 0 0 0 -0 -0 0 0 0 -0 -0 0 0 0 0 0
-0 -0 -0 -0 -0 -0 -0 -0 0 -0 -0 -0 -0 -0 -0 -0 0 0 0 0 0 0 0 0 0 -0 0 0 0 0 0 -0 0 0 0 0 0 -0 -0 0 0 0 0
-0 -0 -0 -0 -0 -0 -0 -0 0 -0 -0 -0 -0 -0 -0 -0 -0 0 0 0 0 0 0 0 0 -0 -0 -0 0 0 0 0 0 0 0 -0 0 0 0 -0 0 0 0
-0 -0 -0 -0 -0 -0 -0 -0 0 -0 -0 -0 -0 -0 -0 0 0 -0 0 0 0 0 0 0 -0 0 0 -0 -0 -0 0 0 0 0 0 0 0 0 0 0 0 0 0
-0 -0 -0 0 0 -0 -0 -0 -0 -0 -0 -0 -0 -0 -0 -0 0 0 -0 0 0 0 -0 -0 -0 -0 -0 -0 -0 0 0 0 0 0 0 0 0 0 0 0 0 -0 0
0 -0 -0 -0 0 0 0 -0 0 -0 -0 -0 -0 -0 -0 -0 0 -0 -0 -0 -0 -0 -0 -0 -0 -0 0 0 0 0 0 0 0 0 0 0 0 0 0 0 0 0 0
0 0 0 -0 0 0 0 0 0 -0 -0 -0 -0 -0 0 0 0 -0 -0 -0 -0 -0 -0 0 0 0 0 0 0 0 0 0 0 0 0 0 0 0 0 0 0 0 0
0 0 -0 -0 -0 0 0 0 0 0 -0 -0 -0 -0 0 0 0 -0 -0 -0 0 -0 -0 -0 -0 -0 0 0 0 0 0 0 0 0 0 0 0 0 1 0 0 0 0
0 -0 -0 -0 -0 -0 0 0 0 0 -0 -0 -0 -0 -0 0 0 0 -0 0 -0 -0 0 0 -0 -0 -0 0 0 -0 0 0 0 0 0 1 1 1 0 0 0 0 0
-0 -0 -0 -0 -0 -0 0 0 0 0 0 -0 -0 0 -0 0 0 0 -0 0 0 -0 -0 -0 -0 -0 -0 0 0 0 0 0 0 0 0 0 1 1 1 1 0 0 0
0 -0 -0 -0 -0 0 0 0 0 0 -0 -0 -0 -0 -0 0 0 0 0 0 0 0 0 0 0 0 -0 -0 -0 0 0 0 0 0 0 0 0 0 0 0 0 0 0
0 0 -0 -0 -0 -0 0 0 1 0 -0 -0 -0 -0 -0 0 0 0 0 0 0 0 0 0 0 0 0 0 0 0 -0 0 0 0 0 0 0 0 0 0 0 0 0
0 0 -0 -0 -0 -0 0 1 0 0 -0 0 -0 -0 -0 -0 -0 0 0 0 -0 0 0 0 0 0 0 0 0 0 0 0 -0 0 0 0 0 0 0 0 0 0 0
0 0 0 0 0 0 0 1 0 0 0 0 0 -0 -0 -0 -0 -0 -0 -0 0 0 0 0 0 0 0 0 0 0 -0 0 0 0 -0 0 0 0 0 0 0 0 0
0 0 0 0 0 0 0 1 1 0 0 0 0 0 0 0 0 0 0 0 0 0 0 0 0 0 0 0 0 0 0 0 0 0 0 0 0 0 0 0 0 0 0
1 0 0 0 1 1 1 1 1 1 1 0 0 0 1 0 1 1 1 0 0 0 0 0 0 0 0 0 0 0 0 0 0 0 0 0 0 0 0 0 0 0 0
1 1 1 1 1 1 2 2 1 1 1 1 1 1 1 1 1 1 1 1 1 1 1 1 1 1 0 0 0 0 0 0 0 0 0 0 0 0 0 0 0 0 0
1 1 1 1 1 1 1 2 2 2 2 2 1 1 1 1 2 2 2 1 1 1 1 1 1 1 1 0 0 0 0 0 0 0 0 0 0 0 0 0 0 0 0
0 0 0 0 1 1 1 2 3 5 4 3 2 3 2 3 3 2 1 1 1 0 1 1 1 1 1 0 0 0 0 0 0 0 0 0 0 0 0 0 0 0 0
0 0 0 0 0 0 1 2 2 1 3 3 4 3 2 3 3 1 0 0 -0 -0 1 1 1 1 1 0 0 0 0 0 0 0 0 0 0 0 0 0 0 0 0
0 1 1 1 1 1 1 1 1 2 2 2 1 2 3 2 3 0 0 0 0 0 0 0 0 1 0 0 0 0 0 0 0 0 0 0 0 0 0 0 0 0 0
0 0 0 0 1 1 1 1 1 0 0 0 1 0 1 1 2 1 0 0 0 0 0 0 0 0 0 0 0 0 0 0 0 0 0 0 0 0 0 0 0 0 0
Wind_Speed_500mb
40 46 49 49 48 51 47 46 46 48 47 45 42 42 42 40 40 39 43 42 34 32 34 30 25 23 24 23 25 25 25 22 21 19 19 20 25 28 29 25 29 35 36
40 44 48 51 54 54 54 57 56 55 56 47 44 39 36 42 35 38 49 44 39 34 34 32 29 27 29 27 29 30 28 22 26 20 19 16 20 28 31 31 27 31 32
43 43 48 52 52 56 60 62 63 64 60 61 47 41 40 51 58 51 49 51 49 47 40 41 34 30 31 29 26 31 30 27 24 30 25 10 16 15 26 30 28 27 37
41 42 46 49 55 56 54 55 56 64 66 64 57 56 53 49 59 64 62 57 55 58 49 45 45 39 32 26 26 32 31 33 28 30 34 29 13 17 13 28 31 28 28
39 42 45 46 50 50 50 49 52 57 60 63 68 61 58 52 49 54 74 63 58 55 65 52 51 43 34 31 29 30 32 34 31 33 30 36 30 22 14 19 29 30 32
37 38 39 40 43 45 49 46 47 55 58 60 61 66 59 56 50 67 57 65 65 64 58 59 53 50 47 37 34 31 37 35 36 34 33 36 32 30 20 15 20 25 36
34 37 38 38 39 42 44 43 43 49 52 55 56 58 56 55 61 66 63 65 54 53 59 57 46 33 46 42 39 40 42 41 39 34 33 42 39 31 25 25 20 19 21
26 31 33 36 36 39 41 40 40 42 46 50 51 54 51 46 49 46 56 56 57 49 40 58 41 40 39 41 40 42 39 42 42 45 40 41 37 32 26 25 20 15 26
19 24 29 31 32 34 39 40 37 34 38 41 40 44 45 46 40 44 46 44 41 42 40 40 46 39 42 42 39 30 34 43 45 48 44 46 43 38 29 28 24 21 22
11 20 27 32 30 29 30 34 32 30 33 36 34 34 36 35 37 39 40 35 33 39 37 37 40 37 32 34 34 30 35 38 41 42 39 42 38 40 33 28 27 21 19
9 18 26 31 32 30 31 32 32 30 32 33 31 31 31 35 32 29 31 32 34 33 37 35 33 29 33 35 33 36 41 44 43 43 44 42 38 37 31 30 24 21 19
5 18 27 33 34 32 31 32 30 30 30 30 30 30 33 34 30 32 32 31 32 31 29 29 26 26 27 26 28 33 32 33 37 38 45 43 40 38 34 24 29 27 20
7 20 27 33 35 33 33 30 27 28 29 28 28 29 29 31 30 29 29 30 29 29 26 26 26 25 24 24 19 19 16 20 30 38 43 41 42 41 35 30 24 23 22
12 19 25 32 33 33 32 30 26 28 29 28 28 31 31 29 29 29 29 29 29 26 24 25 23 24 23 21 14 8 10 14 26 36 44 39 32 35 36 33 32 32 28
15 19 23 31 33 36 36 31 28 29 30 31 31 30 31 31 33 33 33 30 28 27 25 23 23 21 21 21 22 10 9 5 15 19 8 20 24 26 29 31 33 33 35
17 20 25 32 38 43 39 35 34 33 34 34 34 36 36 36 35 33 33 31 31 29 26 24 23 21 17 30 29 22 20 14 9 12 17 15 14 9 19 27 31 32 35
12 21 28 34 39 44 41 38 36 33 36 39 39 40 38 33 32 32 32 32 34 33 28 27 25 23 24 24 24 24 22 25 24 18 20 18 15 16 24 21 30 35 35
14 17 26 29 36 39 42 39 38 38 37 38 40 41 42 37 35 36 35 31 33 32 28 28 28 26 26 25 24 24 18 15 19 24 28 26 27 30 30 30 31 29 29
17 9 18 26 31 39 43 43 43 43 43 42 45 45 41 41 39 37 38 37 35 33 33 30 31 29 30 30 29 26 19 20 19 20 25 28 26 26 27 27 27 28 27
26 10 7 19 23 32 40 44 46 48 49 45 44 45 44 42 42 41 41 38 37 36 35 36 36 36 34 31 30 30 23 23 22 24 29 34 28 29 27 26 29 31 31
28 22 7 6 15 23 34 42 42 47 44 49 45 46 46 45 42 39 38 37 38 36 38 37 39 39 39 36 34 31 31 24 21 26 25 25 40 36 33 29 27 23 20
21 19 13 8 0 12 22 30 37 35 37 40 42 46 50 51 51 46 41 43 45 48 47 47 44 44 45 43 40 36 33 31 24 23 25 31 33 33 31 30 29 24 23
14 10 7 6 6 3 9 19 29 39 33 37 42 49 51 45 48 42 31 31 44 45 45 45 44 42 53 47 44 37 37 34 32 21 28 40 31 34 36 34 30 26 22
13 10 5 1 2 10 11 10 7 21 31 35 32 34 30 37 40 55 27 50 102 63 51 53 50 56 57 49 44 40 38 37 36 38 41 44 38 36 30 31 31 28 24
9 2 5 3 7 11 12 13 19 26 24 31 33 37 40 46 54 47 42 42 104 68 55 54 45 57 60 45 45 35 37 34 33 30 29 37 38 38 37 37 32 32 31
9 12 4 3 2 7 11 10 11 17 23 25 36 40 44 48 57 52 64 52 68 57 64 63 46 40 45 44 41 33 38 40 40 36 32 32 35 35 38 39 35 33 32
Wind_Direction_500mb
206 206 208 208 208 212 211 214 212 214 210 211 214 218 222 223 225 224 228 227 230 238 248 253 260 262 263 261 277 275 269 253 237 225 217 217 227 231 232 229 217 205 202
207 206 208 209 211 214 216 219 221 221 225 215 216 218 222 217 222 221 224 223 228 234 242 252 258 265 269 278 270 266 269 255 236 227 221 219 232 235 232 229 220 211 194
210 208 209 212 214 217 217 220 225 229 229 227 220 219 225 221 225 226 222 223 226 231 241 242 253 260 268 269 271 264 263 255 244 226 219 196 220 210 219 223 215 210 195
211 211 212 213 216 219 219 222 221 227 232 230 219 224 223 220 228 225 226 217 232 239 235 238 241 253 257 258 268 266 268 256 245 235 233 231 244 212 200 222 223 216 199
208 210 214 218 217 220 218 220 221 225 229 230 225 224 227 230 230 237 228 223 238 268 237 243 238 246 249 257 264 266 259 270 247 238 236 230 232 232 209 194 208 214 200
206 210 213 217 219 216 217 218 221 224 224 225 228 224 225 225 227 234 235 229 248 251 233 232 237 248 246 252 257 269 267 262 249 245 241 232 229 225 217 212 198 212 217
203 208 209 210 211 211 210 216 217 220 219 221 222 225 228 227 228 238 245 241 246 243 241 235 242 239 242 245 255 263 266 260 247 242 240 236 235 224 219 221 188 197 201
211 210 209 209 210 211 212 211 213 217 221 222 222 224 228 227 230 233 241 243 251 250 263 235 248 252 248 243 251 260 259 252 245 242 239 235 228 204 216 211 215 203 198
215 211 206 202 203 202 202 203 205 212 211 213 217 220 223 221 223 235 240 245 247 240 244 240 245 244 250 249 246 249 258 254 252 245 238 229 220 207 216 216 216 221 211
203 201 195 193 195 195 197 194 201 205 202 202 210 215 216 216 218 221 231 242 235 241 228 231 238 251 239 241 249 250 262 256 245 240 228 215 217 214 202 212 211 210 223
170 177 182 184 186 185 187 191 194 195 196 199 202 203 206 207 205 222 223 227 237 230 225 235 242 239 242 242 251 258 266 258 242 233 218 213 210 211 201 206 210 216 217
157 172 178 181 183 184 185 187 190 191 190 194 199 201 206 205 206 218 222 221 220 223 228 231 232 225 225 239 256 271 261 250 233 229 220 216 208 206 206 202 210 232 216
162 171 180 182 183 184 183 185 188 187 190 189 193 194 195 199 201 205 204 207 211 212 214 221 220 223 223 235 253 267 252 257 238 225 216 210 206 212 214 209 227 236 227
193 190 182 185 187 181 181 185 186 185 186 182 189 196 200 197 196 197 194 198 200 208 206 209 215 216 215 214 235 254 235 310 243 222 217 199 207 215 223 219 223 217 222
209 197 190 187 187 183 183 188 186 188 190 187 184 185 178 181 184 188 189 193 201 202 201 208 209 211 213 222 231 210 165 84 105 168 213 187 193 214 237 237 233 229 228
223 207 195 194 193 190 188 187 185 189 190 185 180 184 181 186 188 193 197 201 204 201 208 205 207 207 204 224 229 212 216 219 177 156 152 158 167 183 242 234 241 236 233
265 225 212 205 200 196 190 189 188 190 193 191 186 189 188 191 194 196 199 204 204 207 205 203 205 205 207 214 210 215 215 223 214 217 204 219 236 244 238 254 245 237 229
306 251 222 214 205 198 194 191 189 198 197 198 196 196 194 191 191 194 200 204 206 211 210 209 204 203 208 203 202 198 187 201 216 210 212 213 219 228 236 228 228 230 234
352 260 222 211 204 202 199 195 191 197 202 201 204 202 201 194 191 198 198 200 207 211 214 210 211 213 215 203 199 202 199 201 217 224 220 222 229 231 233 240 246 246 242
22 18 223 211 214 211 204 201 199 202 205 203 205 206 205 204 202 199 201 207 207 210 210 218 222 218 220 216 214 207 200 212 210 221 221 236 227 239 240 245 253 257 254
26 33 49 221 222 219 211 208 207 211 209 211 207 207 210 208 208 213 213 218 223 212 211 218 224 226 226 223 221 219 211 208 222 219 234 236 232 238 240 249 251 248 240
18 27 36 46 0 215 208 215 216 217 216 210 205 208 213 210 212 219 222 223 229 228 228 226 230 233 232 232 227 223 223 229 225 221 226 226 241 236 244 248 249 248 241
10 21 40 39 64 133 188 203 211 217 213 211 213 210 214 213 217 212 231 264 246 231 232 225 223 221 234 230 236 230 233 242 245 221 230 231 235 236 244 244 244 243 233
3 2 342 241 220 161 148 157 216 230 224 221 213 198 208 213 215 220 253 256 288 260 240 236 234 236 231 226 225 233 239 249 238 230 224 234 235 236 226 241 236 235 214
282 317 19 61 213 243 263 256 230 223 227 228 237 248 235 237 224 216 229 269 259 244 247 251 245 231 234 229 236 240 247 245 232 211 213 228 228 230 234 235 237 229 215
253 235 266 273 282 297 288 266 236 251 244 258 271 256 248 232 227 243 259 249 227 251 260 252 241 245 244 244 230 238 238 232 224 209 217 223 223 224 229 232 227 219 212
Wind_Speed_850mb
40 46 49 49 48 51 47 46 46 48 47 45 42 42 42 40 40 39 43 42 34 32 34 30 25 23 24 23 25 25 25 22 21 19 19 20 25 28 29 25 29 35 36
40 44 48 51 54 54 54 57 56 55 56 47 44 39 36 42 35 38 49 44 39 34 34 32 29 27 29 27 29 30 28 22 26 20 19 16 20 28 31 31 27 31 32
43 43 48 52 52 56 60 62 63 64 60 61 47 41 40 51 58 51 49 51 49 47 40 41 34 30 31 29 26 31 30 27 24 30 25 10 16 15 26 30 28 27 37
41 42 46 49 55 56 54 55 56 64 66 64 57 56 53 49 59 64 62 57 55 58 49 45 45 39 32 26 26 32 31 33 28 30 34 29 13 17 13 28 31 28 28
39 42 45 46 50 50 50 49 52 57 60 63 68 61 58 52 49 54 74 63 58 55 65 52 51 43 34 31 29 30 32 34 31 33 30 36 30 22 14 19 29 30 32
37 38 39 40 43 45 49 46 47 55 58 60 61 66 59 56 50 67 57 65 65 64 58 59 53 50 47 37 34 31 37 35 36 34 33 36 32 30 20 15 20 25 36
34 37 38 38 39 42 44 43 43 49 52 55 56 58 56 55 61 66 63 65 54 53 59 57 46 33 46 42 39 40 42 41 39 34 33 42 39 31 25 25 20 19 21
26 31 33 36 36 39 41 40 40 42 46 50 51 54 51 46 49 46 56 56 57 49 40 58 41 40 39 41 40 42 39 42 42 45 40 41 37 32 26 25 20 15 26
19 24 29 31 32 34 39 40 37 34 38 41 40 44 45 46 40 44 46 44 41 42 40 40 46 39 42 42 39 30 34 43 45 48 44 46 43 38 29 28 24 21 22
11 20 27 32 30 29 30 34 32 30 33 36 34 34 36 35 37 39 40 35 33 39 37 37 40 37 32 34 34 30 35 38 41 42 39 42 38 40 33 28 27 21 19
9 18 26 31 32 30 31 32 32 30 32 33 31 31 31 35 32 29 31 32 34 33 37 35 33 29 33 35 33 36 41 44 43 43 44 42 38 37 31 30 24 21 19
5 18 27 33 34 32 31 32 30 30 30 30 30 30 33 34 30 32 32 31 32 31 29 29 26 26 27 26 28 33 32 33 37 38 45 43 40 38 34 24 29 27 20
7 20 27 33 35 33 33 30 27 28 29 28 28 29 29 31 30 29 29 30 29 29 26 26 26 25 24 24 19 19 16 20 30 38 43 41 42 41 35 30 24 23 22
12 19 25 32 33 33 32 30 26 28 29 28 28 31 31 29 29 29 29 29 29 26 24 25 23 24 23 21 14 8 10 14 26 36 44 39 32 35 36 33 32 32 28
15 19 23 31 33 36 36 31 28 29 30 31 31 30 31 31 33 33 33 30 28 27 25 23 23 21 21 21 22 10 9 5 15 19 8 20 24 26 29 31 33 33 35
17 20 25 32 38 43 39 35 34 33 34 34 34 36 36 36 35 33 33 31 31 29 26 24 23 21 17 30 29 22 20 14 9 12 17 15 14 9 19 27 31 32 35
12 21 28 34 39 44 41 38 36 33 36 39 39 40 38 33 32 32 32 32 34 33 28 27 25 23 24 24 24 24 22 25 24 18 20 18 15 16 24 21 30 35 35
14 17 26 29 36 39 42 39 38 38 37 38 40 41 42 37 35 36 35 31 33 32 28 28 28 26 26 25 24 24 18 15 19 24 28 26 27 30 30 30 31 29 29
17 9 18 26 31 39 43 43 43 43 43 42 45 45 41 41 39 37 38 37 35 33 33 30 31 29 30 30 29 26 19 20 19 20 25 28 26 26 27 27 27 28 27
26 10 7 19 23 32 40 44 46 48 49 45 44 45 44 42 42 41 41 38 37 36 35 36 36 36 34 31 30 30 23 23 22 24 29 34 28 29 27 26 29 31 31
28 22 7 6 15 23 34 42 42 47 44 49 45 46 46 45 42 39 38 37 38 36 38 37 39 39 39 36 34 31 31 24 21 26 25 25 40 36 33 29 27 23 20
21 19 13 8 0 12 22 30 37 35 37 40 42 46 50 51 51 46 41 43 45 48 47 47 44 44 45 43 40 36 33 31 24 23 25 31 33 33 31 30 29 24 23
14 10 7 6 6 3 9 19 29 39 33 37 42 49 51 45 48 42 31 31 44 45 45 45 44 42 53 47 44 37 37 34 32 21 28 40 31 34 36 34 30 26 22
13 10 5 1 2 10 11 10 7 21 31 35 32 34 30 37 40 55 27 50 102 63 51 53 50 56 57 49 44 40 38 37 36 38 41 44 38 36 30 31 31 28 24
9 2 5 3 7 11 12 13 19 26 24 31 33 37 40 46 54 47 42 42 104 68 55 54 45 57 60 45 45 35 37 34 33 30 29 37 38 38 37 37 32 32 31
9 12 4 3 2 7 11 10 11 17 23 25 36 40 44 48 57 52 64 52 68 57 64 63 46 40 45 44 41 33 38 40 40 36 32 32 35 35 38 39 35 33 32
Wind_Direction_850mb
206 206 208 208 208 212 211 214 212 214 210 211 214 218 222 223 225 224 228 227 230 238 248 253 260 262 263 261 277 275 269 253 237 225 217 217 227 231 232 229 217 205 202
207 206 208 209 211 214 216 219 221 221 225 215 216 218 222 217 222 221 224 223 228 234 242 252 258 265 269 278 270 266 269 255 236 227 221 219 232 235 232 229 220 211 194
210 208 209 212 214 217 217 220 225 229 229 227 220 219 225 221 225 226 222 223 226 231 241 242 253 260 268 269 271 264 263 255 244 226 219 196 220 210 219 223 215 210 195
211 211 212 213 216 219 219 222 221 227 232 230 219 224 223 220 228 225 226 217 232 239 235 238 241 253 257 258 268 266 268 256 245 235 233 231 244 212 200 222 223 216 199
208 210 214 218 217 220 218 220 221 225 229 230 225 224 227 230 230 237 228 223 238 268 237 243 238 246 249 257 264 266 259 270 247 238 236 230 232 232 209 194 208 214 200
206 210 213 217 219 216 217 218 221 224 224 225 228 224 225 225 227 234 235 229 248 251 233 232 237 248 246 252 257 269 267 262 249 245 241 232 229 225 217 212 198 212 217
203 208 209 210 211 211 210 216 217 220 219 221 222 225 228 227 228 238 245 241 246 243 241 235 242 239 242 245 255 263 266 260 247 242 240 236 235 224 219 221 188 197 201
211 210 209 209 210 211 212 211 213 217 221 222 222 224 228 227 230 233 241 243 251 250 263 235 248 252 248 243 251 260 259 252 245 242 239 235 228 204 216 211 215 203 198
215 211 206 202 203 202 202 203 205 212 211 213 217 220 223 221 223 235 240 245 247 240 244 240 245 244 250 249 246 249 258 254 252 245 238 229 220 207 216 216 216 221 211
203 201 195 193 195 195 197 194 201 205 202 202 210 215 216 216 218 221 231 242 235 241 228 231 238 251 239 241 249 250 262 256 245 240 228 215 217 214 202 212 211 210 223
170 177 182 184 186 185 187 191 194 195 196 199 202 203 206 207 205 222 223 227 237 230 225 235 242 239 242 242 251 258 266 258 242 233 218 213 210 211 201 206 210 216 217
157 172 178 181 183 184 185 187 190 191 190 194 199 201 206 205 206 218 222 221 220 223 228 231 232 225 225 239 256 271 261 250 233 229 220 216 208 206 206 202 210 232 216
162 171 180 182 183 184 183 185 188 187 190 189 193 194 195 199 201 205 204 207 211 212 214 221 220 223 223 235 253 267 252 257 238 225 216 210 206 212 214 209 227 236 227
193 190 182 185 187 181 181 185 186 185 186 182 189 196 200 197 196 197 194 198 200 208 206 209 215 216 215 214 235 254 235 310 243 222 217 199 207 215 223 219 223 217 222
209 197 190 187 187 183 183 188 186 188 190 187 184 185 178 181 184 188 189 193 201 202 201 208 209 211 213 222 231 210 165 84 105 168 213 187 193 214 237 237 233 229 228
223 207 195 194 193 190 188 187 185 189 190 185 180 184 181 186 188 193 197 201 204 201 208 205 207 207 204 224 229 212 216 219 177 156 152 158 167 183 242 234 241 236 233
265 225 212 205 200 196 190 189 188 190 193 191 186 189 188 191 194 196 199 204 204 207 205 203 205 205 207 214 210 215 215 223 214 217 204 219 236 244 238 254 245 237 229
306 251 222 214 205 198 194 191 189 198 197 198 196 196 194 191 191 194 200 204 206 211 210 209 204 203 208 203 202 198 187 201 216 210 212 213 219 228 236 228 228 230 234
352 260 222 211 204 202 199 195 191 197 202 201 204 202 201 194 191 198 198 200 207 211 214 210 211 213 215 203 199 202 199 201 217 224 220 222 229 231 233 240 246 246 242
22 18 223 211 214 211 204 201 199 202 205 203 205 206 205 204 202 199 201 207 207 210 210 218 222 218 220 216 214 207 200 212 210 221 221 236 227 239 240 245 253 257 254
26 33 49 221 222 219 211 208 207 211 209 211 207 207 210 208 208 213 213 218 223 212 211 218 224 226 226 223 221 219 211 208 222 219 234 236 232 238 240 249 251 248 240
18 27 36 46 0 215 208 215 216 217 216 210 205 208 213 210 212 219 222 223 229 228 228 226 230 233 232 232 227 223 223 229 225 221 226 226 241 236 244 248 249 248 241
10 21 40 39 64 133 188 203 211 217 213 211 213 210 214 213 217 212 231 264 246 231 232 225 223 221 234 230 236 230 233 242 245 221 230 231 235 236 244 244 244 243 233
3 2 342 241 220 161 148 157 216 230 224 221 213 198 208 213 215 220 253 256 288 260 240 236 234 236 231 226 225 233 239 249 238 230 224 234 235 236 226 241 236 235 214
282 317 19 61 213 243 263 256 230 223 227 228 237 248 235 237 224 216 229 269 259 244 247 251 245 231 234 229 236 240 247 245 232 211 213 228 228 230 234 235 237 229 215
253 235 266 273 282 297 288 266 236 251 244 258 271 256 248 232 227 243 259 249 227 251 260 252 241 245 244 244 230 238 238 232 224 209 217 223 223 224 229 232 227 219 212